Regional Weather Roundup
Issued by NWS

Home | Current Version | Previous Version | Graphics & Text | Print | Product List | Glossary On
Versions: 1 2 3 4 5 6 7 8 9 10 11 12 13 14 15 16 17 18 19 20 21 22 23 24 25 26 27 28 29 30 31 32 33 34 35 36 37 38 39 40 41 42 43 44 45 46 47 48 49 50
000
ASUS43 KFSD 301910
RWRSD

WEATHER ROUNDUP FOR SOUTH DAKOTA
NATIONAL WEATHER SERVICE SIOUX FALLS SD
200 PM CDT TUE SEP 30 2014

NOTE: "FAIR" INDICATES FEW OR NO CLOUDS BELOW 12,000 FEET WITH NO
SIGNIFICANT WEATHER AND/OR OBSTRUCTIONS TO VISIBILITY.


SDZ001>005-009-010-012>017-302000-
NORTHWEST AND NORTH CENTRAL SOUTH DAKOTA

CITY           SKY/WX    TMP DP  RH WIND       PRES   REMARKS
BUFFALO          N/A     53  51  93 N12       29.45F
FAITH            N/A     55  53  93 MISG      29.38F
MOBRIDGE       CLOUDY    66  58  75 E21G33    29.42F
$$

SDZ012>016-024>037-041>051-057-063-072>074-302000-
SOUTHWEST AND SOUTH CENTRAL SOUTH DAKOTA

CITY           SKY/WX    TMP DP  RH WIND       PRES   REMARKS
RAPID CTY ARPT CLOUDY    60  55  83 NW14G20   29.50R
PIERRE         CLOUDY    68  49  50 S29G44    29.44S
CUSTER         PTSUNNY   52  44  74 W20G32    29.62R
ELLSWORTH AFB  PTSUNNY   58  58 100 NW24G32   29.49
PHILIP         PTSUNNY   64  52  63 W21G36    29.42S
PINE RIDGE     LGT RAIN  58  50  75 W24G40    29.61R
WINNER         FAIR      71  47  42 SW25G41   29.57R
$$

SDZ004>011-016>023-039-040-302000-
NORTHEAST SOUTH DAKOTA

CITY           SKY/WX    TMP DP  RH WIND       PRES   REMARKS
ABERDEEN       CLOUDY    61  55  81 SE25G32   29.62F
WATERTOWN      CLOUDY    54  51  90 SE14G22   29.74F
SISSETON         N/A     48  47  96 S18G25    29.78F
$$

SDZ017-020-022-023-036>040-048>070-302000-
SOUTHEAST SOUTH DAKOTA

CITY           SKY/WX    TMP DP  RH WIND       PRES   REMARKS
SIOUX FALLS    CLOUDY    63  60  90 SE15G26   29.75F
HURON          MOSUNNY   69  60  73 SE22G32   29.60F
CHAMBERLAIN    MOSUNNY   74  46  37 S32G44    29.55F
MITCHELL       MOSUNNY   75  62  64 SE23G31   29.63F
YANKTON        MOSUNNY   73  61  64 S24       29.70F
$$

ABBREVIATIONS USED IN REMARKS
   TC - TEMPERATURE IN CELSIUS
  WCI - WIND CHILL INDEX
   HX - HEAT INDEX
  VSB - VISIBILITY



USA.gov is the U.S. government's official web portal to all federal, state and local government web resources and services.